When you browse on this site, cookies collect data to enhance your experience and personalize the content and advertising you see.
Visit our Privacy Policy to learn more. By continuing to use the site, you agree to this use of cookies and data.
  • In Hungary
  • List of Countries
  • For 7 days
  • Water Temperature
  • Satellite Maps
  • Weather Map
  • News
  • Weather Widgets
  • user-avatar
    Login

    Hourly Weather Zabierzow

    Today, 20 May, Monday

    Time Temperature Precipitation Wind Pressure Humidity
    00:00 +14°C° 0 mm 2 mps 732 mmHg 90%
    01:00 +14°C° 0 mm 2 mps 731 mmHg 91%
    02:00 +14°C° 0 mm 2 mps 731 mmHg 91%
    03:00 +14°C° 0 mm 2 mps 730 mmHg 91%
    04:00 +14°C° 0 mm 2 mps 730 mmHg 91%
    05:00 +15°C° 0 mm 2 mps 730 mmHg 88%
    06:00 +16°C° 0 mm 3 mps 730 mmHg 84%
    07:00 +19°C° 0 mm 3 mps 730 mmHg 77%
    08:00 +20°C° 0 mm 4 mps 731 mmHg 70%
    09:00 +22°C° 0 mm 4 mps 731 mmHg 63%
    10:00 +23°C° 0 mm 4 mps 731 mmHg 56%
    11:00 +23°C° 0 mm 4 mps 731 mmHg 54%
    12:00 +25°C° 0 mm 4 mps 731 mmHg 51%
    13:00 +25°C° 0 mm 3 mps 732 mmHg 48%
    14:00 +25°C° 0 mm 3 mps 732 mmHg 49%
    15:00 +25°C° 0 mm 3 mps 731 mmHg 50%
    16:00 +25°C° 0 mm 2 mps 731 mmHg 51%
    17:00 +23°C° 0 mm 2 mps 731 mmHg 57%
    18:00 +20°C° 0 mm 2 mps 731 mmHg 64%
    19:00 +19°C° 0 mm 1 mps 731 mmHg 70%
    20:00 +17°C° 0 mm 2 mps 731 mmHg 71%
    21:00 +16°C° 0 mm 2 mps 731 mmHg 72%
    22:00 +15°C° 0 mm 2 mps 731 mmHg 73%
    23:00 +15°C° 0 mm 2 mps 731 mmHg 75%

    Tomorrow, 21 May, Tuesday

    Time Temperature Precipitation Wind Pressure Humidity
    00:00 +14°C° 0 mm 2 mps 731 mmHg 76%
    01:00 +14°C° 0 mm 1 mps 731 mmHg 78%
    02:00 +14°C° 0 mm 1 mps 731 mmHg 78%
    03:00 +14°C° 0 mm 1 mps 731 mmHg 78%
    04:00 +14°C° 0 mm 1 mps 731 mmHg 78%
    05:00 +15°C° 0 mm 1 mps 731 mmHg 75%
    06:00 +16°C° 0 mm 1 mps 731 mmHg 73%
    07:00 +18°C° 0 mm 1 mps 731 mmHg 70%
    08:00 +17°C° 0.1 mm 0 mps 731 mmHg 66%
    09:00 +19°C° 0.1 mm 0 mps 731 mmHg 62%
    10:00 +20°C° 0.1 mm 0 mps 731 mmHg 57%
    11:00 +22°C° 0.1 mm 1 mps 731 mmHg 57%
    12:00 +21°C° 0.1 mm 2 mps 731 mmHg 56%
    13:00 +21°C° 0.1 mm 2 mps 731 mmHg 55%
    14:00 +21°C° 0.1 mm 3 mps 731 mmHg 61%
    15:00 +20°C° 0.1 mm 4 mps 731 mmHg 66%
    16:00 +19°C° 0.1 mm 4 mps 731 mmHg 71%
    17:00 +18°C° 0.2 mm 4 mps 731 mmHg 74%
    18:00 +17°C° 0.2 mm 4 mps 731 mmHg 77%
    19:00 +17°C° 0.2 mm 4 mps 731 mmHg 80%
    20:00 +15°C° 0.4 mm 4 mps 731 mmHg 82%
    21:00 +14°C° 0.4 mm 4 mps 731 mmHg 84%
    22:00 +14°C° 0.4 mm 4 mps 731 mmHg 85%
    23:00 +14°C° 0.9 mm 4 mps 731 mmHg 86%

    Day after tomorrow, 22 May, Wednesday

    Time Temperature Precipitation Wind Pressure Humidity
    00:00 +13°C° 0.9 mm 4 mps 731 mmHg 87%
    01:00 +13°C° 0.9 mm 4 mps 731 mmHg 88%
    02:00 +13°C° 2.5 mm 4 mps 731 mmHg 90%
    03:00 +13°C° 2.5 mm 4 mps 731 mmHg 92%
    04:00 +13°C° 2.5 mm 5 mps 731 mmHg 93%
    05:00 +13°C° 3.5 mm 5 mps 732 mmHg 93%
    06:00 +13°C° 3.5 mm 5 mps 732 mmHg 93%
    07:00 +13°C° 3.5 mm 6 mps 732 mmHg 93%
    08:00 +13°C° 1 mm 6 mps 732 mmHg 93%
    09:00 +13°C° 1 mm 6 mps 733 mmHg 92%
    10:00 +13°C° 1 mm 6 mps 733 mmHg 92%
    11:00 +13°C° 0.5 mm 6 mps 733 mmHg 92%
    12:00 +14°C° 0.5 mm 6 mps 733 mmHg 92%
    13:00 +14°C° 0.5 mm 6 mps 734 mmHg 91%
    14:00 +14°C° 0.5 mm 6 mps 734 mmHg 92%
    15:00 +14°C° 0.5 mm 6 mps 734 mmHg 92%
    16:00 +14°C° 0.5 mm 6 mps 734 mmHg 93%
    17:00 +14°C° 0.3 mm 6 mps 734 mmHg 93%
    18:00 +13°C° 0.3 mm 6 mps 734 mmHg 93%
    19:00 +13°C° 0.3 mm 6 mps 735 mmHg 93%
    20:00 +13°C° 0.7 mm 6 mps 735 mmHg 93%
    21:00 +11°C° 0.7 mm 6 mps 735 mmHg 94%
    22:00 +11°C° 0.7 mm 6 mps 736 mmHg 94%
    23:00 +11°C° 0.3 mm 6 mps 736 mmHg 94%

    23 May, Thursday

    Time Temperature Precipitation Wind Pressure Humidity
    00:00 +11°C° 0.3 mm 6 mps 736 mmHg 94%
    01:00 +11°C° 0.3 mm 6 mps 736 mmHg 94%
    02:00 +11°C° 0.3 mm 6 mps 736 mmHg 94%
    03:00 +11°C° 0.3 mm 6 mps 736 mmHg 94%
    04:00 +11°C° 0.3 mm 6 mps 737 mmHg 93%
    05:00 +10°C° 0.4 mm 6 mps 737 mmHg 93%
    06:00 +10°C° 0.4 mm 7 mps 737 mmHg 93%
    07:00 +10°C° 0.4 mm 7 mps 738 mmHg 92%
    08:00 +9°C° 1.2 mm 7 mps 738 mmHg 92%
    09:00 +9°C° 1.2 mm 6 mps 738 mmHg 92%
    10:00 +9°C° 1.2 mm 6 mps 739 mmHg 92%
    11:00 +9°C° 0.3 mm 6 mps 739 mmHg 90%
    12:00 +9°C° 0.3 mm 6 mps 739 mmHg 88%
    13:00 +9°C° 0.3 mm 7 mps 740 mmHg 85%
    14:00 +9°C° 0 mm 6 mps 740 mmHg 83%
    15:00 +10°C° 0 mm 5 mps 740 mmHg 80%
    16:00 +11°C° 0 mm 4 mps 740 mmHg 78%
    17:00 +11°C° 0 mm 3 mps 740 mmHg 79%
    18:00 +12°C° 0 mm 2 mps 740 mmHg 80%
    19:00 +12°C° 0 mm 1 mps 740 mmHg 81%
    20:00 +11°C° 0 mm 1 mps 740 mmHg 83%
    21:00 +10°C° 0 mm 1 mps 740 mmHg 85%
    22:00 +9°C° 0 mm 1 mps 740 mmHg 87%
    23:00 +8°C° 0 mm 2 mps 740 mmHg 88%

    24 May, Friday

    Time Temperature Precipitation Wind Pressure Humidity
    00:00 +7°C° 0 mm 2 mps 740 mmHg 89%
    01:00 +7°C° 0 mm 2 mps 740 mmHg 91%
    02:00 +7°C° 0 mm 2 mps 739 mmHg 91%
    03:00 +6°C° 0 mm 2 mps 739 mmHg 91%
    04:00 +6°C° 0 mm 2 mps 739 mmHg 91%
    05:00 +8°C° 0 mm 2 mps 739 mmHg 85%
    06:00 +10°C° 0 mm 2 mps 739 mmHg 79%
    07:00 +12°C° 0 mm 2 mps 739 mmHg 74%
    08:00 +13°C° 0 mm 3 mps 738 mmHg 68%
    09:00 +14°C° 0 mm 3 mps 738 mmHg 61%
    10:00 +16°C° 0 mm 3 mps 738 mmHg 55%
    11:00 +17°C° 0 mm 3 mps 737 mmHg 52%
    12:00 +18°C° 0 mm 3 mps 737 mmHg 50%
    13:00 +19°C° 0 mm 2 mps 736 mmHg 47%
    14:00 +19°C° 0 mm 2 mps 736 mmHg 47%
    15:00 +19°C° 0 mm 2 mps 736 mmHg 47%
    16:00 +20°C° 0 mm 1 mps 735 mmHg 48%
    17:00 +18°C° 0 mm 1 mps 735 mmHg 54%
    18:00 +16°C° 0 mm 1 mps 735 mmHg 60%
    19:00 +14°C° 0 mm 1 mps 734 mmHg 66%
    20:00 +13°C° 0 mm 1 mps 734 mmHg 69%
    21:00 +12°C° 0 mm 1 mps 734 mmHg 72%
    22:00 +10°C° 0 mm 1 mps 734 mmHg 74%
    23:00 +10°C° 0 mm 1 mps 734 mmHg 76%

    25 May, Saturday

    Time Temperature Precipitation Wind Pressure Humidity
    00:00 +10°C° 0 mm 1 mps 734 mmHg 78%
    01:00 +9°C° 0 mm 1 mps 734 mmHg 80%
    02:00 +9°C° 0 mm 1 mps 734 mmHg 81%
    03:00 +9°C° 0 mm 1 mps 734 mmHg 81%
    04:00 +8°C° 0 mm 1 mps 734 mmHg 82%
    05:00 +11°C° 0 mm 1 mps 734 mmHg 77%
    06:00 +13°C° 0 mm 1 mps 734 mmHg 72%
    07:00 +15°C° 0 mm 1 mps 734 mmHg 66%
    08:00 +18°C° 0 mm 1 mps 734 mmHg 62%
    09:00 +19°C° 0 mm 1 mps 734 mmHg 58%
    10:00 +21°C° 0 mm 1 mps 734 mmHg 54%
    11:00 +22°C° 0.1 mm 1 mps 734 mmHg 53%
    12:00 +23°C° 0.1 mm 1 mps 734 mmHg 53%
    13:00 +23°C° 0.1 mm 1 mps 733 mmHg 53%
    14:00 +23°C° 0.9 mm 2 mps 733 mmHg 58%
    15:00 +21°C° 0.9 mm 2 mps 733 mmHg 63%
    16:00 +21°C° 0.9 mm 2 mps 733 mmHg 68%
    17:00 +19°C° 1.4 mm 2 mps 733 mmHg 74%
    18:00 +18°C° 1.4 mm 2 mps 733 mmHg 80%
    19:00 +17°C° 1.4 mm 2 mps 733 mmHg 86%
    20:00 +16°C° 0.6 mm 2 mps 734 mmHg 89%
    21:00 +15°C° 0.6 mm 2 mps 734 mmHg 91%
    22:00 +14°C° 0.6 mm 2 mps 734 mmHg 93%
    23:00 +13°C° 0 mm 2 mps 734 mmHg 94%
    Show more